Simultaneous Nadir Overpasses (SNOs) Predictions

Prediction of SNOs between FY3D and LANDSAT-8 Satellite Orbit:

Table of predicted SNOs for the next 14.0 days since TLE Epoch: 7/15/2024
Index Date (FY3D) Time (FY3D) Lat,Lon (FY3D) SZA (FY3D ) Date (LANDSAT-8) Time (LANDSAT-8) Lat,Lon (LANDSAT-8) SZA (LANDSAT-8 ) Distance(km) Time Diff (sec)
1 07/15/2024 09:54:47 -74.55,-144.56 126.93 07/15/2024 09:55:44 -74.53,-144.68 126.95 3.94 57
2 07/15/2024 10:45:32 74.49, 22.91 53.02 07/15/2024 10:45:10 74.52, 22.92 53.05 3.37 22
3 07/18/2024 01:21:33 74.93, 162.76 53.89 07/18/2024 01:22:42 74.84, 164.32 53.83 46.20 69
4 07/18/2024 02:12:09 -74.53, -28.79 126.50 07/18/2024 02:12:16 -74.51, -28.87 126.52 2.89 7
5 07/18/2024 03:02:54 74.47, 138.68 53.45 07/18/2024 03:01:42 74.49, 138.73 53.47 3.22 72
6
